Regional Weather Roundup
Issued by NWS

Home | Current Version | Previous Version | Text Only | Print | Product List | Glossary Off
Versions: 1 2 3 4 5 6 7 8 9 10 11 12 13 14 15 16 17 18 19 20 21 22 23 24 25 26 27 28

000
ASUS45 KBOU 302107
RWRCO

WEATHER ROUNDUP FOR COLORADO
NATIONAL WEATHER SERVICE DENVER/BOULDER CO
300 PM MDT MON MAY 30 2016

NOTE: "FAIR" INDICATES FEW OR NO CLOUDS BELOW 12000 FEET WITH NO
SIGNIFICANT WEATHER AND/OR OBSTRUCTIONS TO VISIBILITY.

COZ001>005-013-030-031-302200-
...NORTHWEST COLORADO...

CITY           SKY/WX    TMP DP  RH WIND       PRES   REMARKS
CRAIG          FAIR      68  37  32 NW14      30.09F
HAYDEN         FAIR      66  36  32 W15G21    30.10F
MEEKER         FAIR      71  35  26 NW12G17   30.09F
MOUNT WERNER   NOT AVBL
STEAMBOAT SPGS FAIR      65  37  34 W15G21    30.11F
WALDEN         NOT AVBL
$$

COZ006>008-011-302200-
...WEST CENTRAL VALLEYS...

CITY           SKY/WX    TMP DP  RH WIND       PRES   REMARKS
GRAND JUNCTION FAIR      79  32  18 NW20G30   29.98F
MONTROSE       FAIR      72  34  24 NW17      30.06S
EAGLE          MOSUNNY   73  25  16 SW16G24   30.07F
RIFLE          FAIR      72  36  26 NW16      30.02S
DELTA          FAIR      80  25  13 W13       30.00S
NUCLA          FAIR      72  32  23 NW14      30.09F
$$

COZ017>023-064>068-302200-
...SOUTHWEST COLORADO...

CITY           SKY/WX    TMP DP  RH WIND       PRES   REMARKS
DURANGO        FAIR      77  17  10 SW16G23   30.09F
CORTEZ         FAIR      79  18  10 SW12G18   30.05F
PAGOSA SPRINGS FAIR      72  10   9 SW10G23   30.16F
TELLURIDE      PTSUNNY   61  13  14 SW18G24   30.24F
WOLF CREEK PAS FAIR      45  18  33 SW17G31   30.42F
$$

COZ009-010-012-014-032>034-037-058>063-302200-
...CENTRAL COLORADO...

CITY           SKY/WX    TMP DP  RH WIND       PRES   REMARKS
ASPEN          PTSUNNY   60  28  29 VRB5      30.16S
BUENA VISTA    FAIR      64  20  18 W12G25    30.16F
COPPER MTN     NOT AVBL
BERTHOUD PASS  FAIR      36  27  69 N18G30    30.40F
COTTONWOOD PAS FAIR      63  18  17 S3        30.27F
GUNNISON       FAIR      68  21  17 NW15G25   30.15F
KREMMLING      FAIR      63  32  31 E5        30.15S
LEADVILLE      PTSUNNY   53  17  24 W8        30.26S
MONARCH PASS   CLOUDY    43  21  42 MISG      30.50S
SALIDA         FAIR      67  26  20 S12G25    30.20S
SUNLIGHT       FAIR      50  30  46 SW3       30.35S
WILKERSON PASS CLOUDY    43  21  42 W6G21     30.39F
$$

COZ069>075-302200-
...SAN LUIS VALLEY/SANGRE DE CRISTO MOUNTAINS...

CITY           SKY/WX    TMP DP  RH WIND       PRES   REMARKS
ALAMOSA        PTSUNNY   72  21  14 NW12G17   30.11F
LA VETA PASS   FAIR      63  23  22 SW3       30.29S
SAGUACHE       PTSUNNY   64  30  27 SE7       30.14F
$$

COZ035-036-038>040-302200-
...NORTHERN COLORADO FRONT RANGE...

CITY           SKY/WX    TMP DP  RH WIND       PRES   REMARKS
DENVER INTL AP PTSUNNY   78  38  23 VRB3      29.95S
DMNS CITY PARK   N/A     77  25  14 N16       29.94R
AURORA         PTSUNNY   76  34  21 S8        29.97F
FRONT RANGE AP PTSUNNY   77  32  19 SE6       29.96F
ERIE MUNI ARPT PTSUNNY   71  36  28 N18G26    29.95S
BOULDER MUN AP PTSUNNY   70  41  35 NW7       29.97S
CENTENNIAL     PTSUNNY   73  31  21 SW8       29.97F
BROOMFIELD     TSTM      73  43  33 N24G35    29.98
FORT COLLINS   FAIR      48  37  66 W21G28    29.99R
LONGMONT       LGT RAIN  70  40  34 NW9G23    30.00R
$$

COZ041-046-047-076>085-087-088-302200-
...PIKES PEAK/PALMER DIVIDE AND SOUTHERN FOOTHILLS...

CITY           SKY/WX    TMP DP  RH WIND       PRES   REMARKS
COLO. SPRINGS  PTSUNNY   72  33  24 N16       30.03S
A. F. ACADEMY  CLOUDY    66  27  22 NE9       30.05R
SCHRIEVER AFB  NOT AVBL
ELLICOTT       NOT AVBL
FALCON         PTSUNNY   67  30  25 NW13G21   30.09R
FORT CARSON    PTSUNNY   73  34  24 N15       29.99F
LIMON          LGT RAIN  69  32  25 E23G37    29.99F
MONUMENT HILL  CLOUDY    61  32  33 S18G39    30.10R
TRINIDAD       FAIR      77  27  15 E10       30.00F
$$

COZ042>045-048>051-090-091-302200-
...NORTHEAST COLORADO...

CITY           SKY/WX    TMP DP  RH WIND       PRES   REMARKS
GREELEY ARPT   PTSUNNY   72  36  26 SW13      29.99R THUNDER
AKRON          FAIR      77  45  32 S8        29.91F
BURLINGTON     FAIR      82  47  29 S12       29.92F
WRAY           FAIR      82  48  30 S7G18     29.88F
STERLING       FAIR      79  52  38 CALM      29.88F
HOLYOKE        FAIR      84  46  26 S7        29.88F
FORT MORGAN    FAIR      74  42  30 N21G30    29.94R
$$

COZ086-089-092>099-302200-
...SOUTHEAST COLORADO...

CITY           SKY/WX    TMP DP  RH WIND       PRES   REMARKS
PUEBLO         FAIR      83  43  24 SE8G17    29.91F
LA JUNTA       FAIR      82  48  30 VRB3      29.91F
LAMAR          FAIR      86  53  32 S12G21    29.86F
SPRINGFIELD      N/A     78  51  38 S16       29.93F
$$




USA.gov is the U.S. government's official web portal to all federal, state and local government web resources and services.